Tracking 25963 objects as of 13-Aug-2022
HD Live streaming from Space Station
objects crossing your sky now

STARLINK-3969

Track STARLINK-3969 now!
10-day predictions
STARLINK-3969 is classified as:


NORAD ID: 52551
Int'l Code: 2022-051U
Perigee: 545.4 km
Apogee: 548.4 km
Inclination: 53.2 °
Period: 95.4 minutes
Semi major axis: 6917 km
RCS: Unknown
Launch date: May 13, 2022
Source: United States (US)
Launch site: AIR FORCE WESTERN TEST RANGE (AFWTR)
aabbcc
Your satellite tracking list
Your tracking list is empty




NASA's NSSDC Master Catalog

Two Line Element Set (TLE):
1 52551U 22051U   22224.58334491 -.00009175  00000-0 -55915-3 0  9999
2 52551  53.2156 227.9557 0002140  46.2287 161.4507 15.08833876  1302
Source of the keplerian elements: AFSPC